TimeCST,TemperatureF,Dew PointF,Humidity,Sea Level PressureIn,VisibilityMPH,Wind Direction,Wind SpeedMPH,Gust SpeedMPH,PrecipitationIn,Events,Conditions,WindDirDegrees,DateUTC
12:15 AM,59.0,44.6,59,30.09,10.0,NNW,3.5,-,N/A,,Clear,330,2012-11-04 05:15:00
12:35 AM,59.0,44.6,59,30.10,10.0,North,3.5,-,N/A,,Clear,10,2012-11-04 05:35:00
12:55 AM,57.2,42.8,59,30.10,10.0,NNE,3.5,-,N/A,,Clear,20,2012-11-04 05:55:00
1:15 AM,55.4,42.8,63,30.09,10.0,NNW,4.6,-,N/A,,Clear,340,2012-11-04 06:15:00
1:35 AM,55.4,42.8,63,30.09,10.0,NNW,6.9,-,N/A,,Clear,330,2012-11-04 06:35:00
1:55 AM,55.4,42.8,63,30.08,10.0,North,8.1,-,N/A,,Clear,350,2012-11-04 06:55:00
1:15 AM,55.4,41.0,58,30.08,10.0,North,5.8,-,N/A,,Clear,360,2012-11-04 07:15:00
1:55 AM,53.6,41.0,62,30.08,10.0,North,6.9,-,N/A,,Clear,350,2012-11-04 07:55:00
2:15 AM,53.6,41.0,62,30.08,10.0,North,4.6,-,N/A,,Clear,360,2012-11-04 08:15:00
2:35 AM,53.6,41.0,62,30.08,10.0,Calm,Calm,-,N/A,,Clear,0,2012-11-04 08:35:00
2:55 AM,53.6,41.0,62,30.09,10.0,North,4.6,-,N/A,,Clear,350,2012-11-04 08:55:00
3:15 AM,51.8,41.0,67,30.09,10.0,NNW,4.6,-,N/A,,Clear,340,2012-11-04 09:15:00
3:55 AM,51.8,41.0,67,30.10,10.0,NNE,3.5,-,N/A,,Clear,20,2012-11-04 09:55:00
4:15 AM,51.8,41.0,67,30.10,10.0,Calm,Calm,-,N/A,,Scattered Clouds,0,2012-11-04 10:15:00
4:35 AM,51.8,41.0,67,30.10,10.0,Calm,Calm,-,N/A,,Mostly Cloudy,0,2012-11-04 10:35:00
4:55 AM,53.6,42.8,67,30.12,10.0,Calm,Calm,-,N/A,,Mostly Cloudy,0,2012-11-04 10:55:00
5:15 AM,51.8,41.0,67,30.11,10.0,North,4.6,-,N/A,,Scattered Clouds,350,2012-11-04 11:15:00
5:35 AM,51.8,41.0,67,30.11,10.0,Calm,Calm,-,N/A,,Scattered Clouds,0,2012-11-04 11:35:00
5:55 AM,53.6,42.8,67,30.12,10.0,North,3.5,-,N/A,,Overcast,360,2012-11-04 11:55:00
6:15 AM,53.6,41.0,62,30.12,10.0,North,5.8,-,N/A,,Mostly Cloudy,360,2012-11-04 12:15:00
6:35 AM,53.6,41.0,62,30.12,10.0,North,3.5,-,N/A,,Mostly Cloudy,360,2012-11-04 12:35:00
6:55 AM,51.8,42.8,71,30.13,10.0,North,3.5,-,N/A,,Overcast,360,2012-11-04 12:55:00
7:15 AM,53.6,42.8,67,30.14,10.0,NNE,3.5,-,N/A,,Overcast,20,2012-11-04 13:15:00
7:35 AM,53.6,42.8,67,30.15,10.0,NNE,3.5,-,N/A,,Scattered Clouds,30,2012-11-04 13:35:00
7:55 AM,55.4,42.8,63,30.14,10.0,NE,5.8,-,N/A,,Scattered Clouds,40,2012-11-04 13:55:00
8:15 AM,57.2,44.6,63,30.14,10.0,NE,4.6,-,N/A,,Scattered Clouds,50,2012-11-04 14:15:00
8:35 AM,59.0,46.4,63,30.15,10.0,East,5.8,-,N/A,,Clear,90,2012-11-04 14:35:00
8:55 AM,60.8,46.4,59,30.15,10.0,East,4.6,-,N/A,,Clear,80,2012-11-04 14:55:00
9:15 AM,60.8,46.4,59,30.15,10.0,NE,6.9,-,N/A,,Clear,40,2012-11-04 15:15:00
9:35 AM,62.6,48.2,59,30.14,10.0,ENE,6.9,-,N/A,,Clear,60,2012-11-04 15:35:00
10:15 AM,64.4,50.0,59,30.14,10.0,ENE,8.1,-,N/A,,Clear,70,2012-11-04 16:15:00
10:55 AM,66.2,51.8,60,30.15,10.0,ENE,5.8,-,N/A,,Clear,60,2012-11-04 16:55:00
11:15 AM,68.0,51.8,56,30.14,10.0,East,4.6,-,N/A,,Clear,90,2012-11-04 17:15:00
11:55 AM,68.0,51.8,56,30.13,10.0,Calm,Calm,-,N/A,,Clear,0,2012-11-04 17:55:00
12:15 PM,69.8,51.8,53,30.11,10.0,NNE,5.8,-,N/A,,Clear,20,2012-11-04 18:15:00
12:55 PM,71.6,51.8,50,30.11,10.0,North,3.5,-,N/A,,Clear,360,2012-11-04 18:55:00
1:15 PM,71.6,51.8,50,30.10,10.0,ESE,3.5,-,N/A,,Clear,110,2012-11-04 19:15:00
1:55 PM,71.6,51.8,50,30.08,10.0,ESE,3.5,-,N/A,,Clear,120,2012-11-04 19:55:00
2:15 PM,71.6,51.8,50,30.07,10.0,Calm,Calm,-,N/A,,Clear,0,2012-11-04 20:15:00
2:35 PM,71.6,51.8,50,30.07,10.0,Calm,Calm,-,N/A,,Clear,0,2012-11-04 20:35:00
2:55 PM,71.6,51.8,50,30.07,10.0,NNE,4.6,-,N/A,,Clear,20,2012-11-04 20:55:00
3:15 PM,71.6,51.8,50,30.06,10.0,NW,4.6,-,N/A,,Clear,320,2012-11-04 21:15:00
3:35 PM,71.6,51.8,50,30.06,10.0,Calm,Calm,-,N/A,,Clear,0,2012-11-04 21:35:00
3:55 PM,71.6,51.8,50,30.04,10.0,Calm,Calm,-,N/A,,Clear,0,2012-11-04 21:55:00
4:15 PM,71.6,51.8,50,30.04,10.0,Calm,Calm,-,N/A,,Clear,0,2012-11-04 22:15:00
4:35 PM,71.6,51.8,50,30.04,10.0,Calm,Calm,-,N/A,,Clear,0,2012-11-04 22:35:00
4:55 PM,69.8,51.8,53,30.05,10.0,Calm,Calm,-,N/A,,Clear,0,2012-11-04 22:55:00
5:15 PM,69.8,53.6,56,30.05,10.0,Calm,Calm,-,N/A,,Clear,0,2012-11-04 23:15:00
5:35 PM,64.4,53.6,68,30.06,10.0,Calm,Calm,-,N/A,,Clear,0,2012-11-04 23:35:00
5:55 PM,64.4,53.6,68,30.06,10.0,ENE,3.5,-,N/A,,Clear,60,2012-11-04 23:55:00
6:15 PM,62.6,53.6,72,30.07,10.0,ENE,4.6,-,N/A,,Clear,60,2012-11-05 00:15:00
6:35 PM,64.4,53.6,68,30.07,10.0,NE,3.5,-,N/A,,Clear,50,2012-11-05 00:35:00
6:55 PM,62.6,53.6,72,30.08,10.0,NE,3.5,-,N/A,,Clear,40,2012-11-05 00:55:00
7:15 PM,62.6,53.6,72,30.08,10.0,ENE,3.5,-,N/A,,Clear,60,2012-11-05 01:15:00
7:55 PM,60.8,53.6,77,30.09,10.0,East,4.6,-,N/A,,Clear,80,2012-11-05 01:55:00
8:15 PM,60.8,53.6,77,30.08,10.0,East,5.8,-,N/A,,Clear,90,2012-11-05 02:15:00
8:35 PM,59.0,53.6,82,30.08,10.0,East,4.6,-,N/A,,Clear,90,2012-11-05 02:35:00
8:55 PM,59.0,51.8,77,30.09,10.0,East,3.5,-,N/A,,Clear,90,2012-11-05 02:55:00
9:15 PM,59.0,51.8,77,30.09,10.0,Calm,Calm,-,N/A,,Clear,0,2012-11-05 03:15:00
9:35 PM,57.2,51.8,82,30.09,10.0,Calm,Calm,-,N/A,,Clear,0,2012-11-05 03:35:00
9:55 PM,57.2,51.8,82,30.09,10.0,Calm,Calm,-,N/A,,Clear,0,2012-11-05 03:55:00
10:15 PM,55.4,51.8,88,30.09,10.0,Calm,Calm,-,N/A,,Clear,0,2012-11-05 04:15:00
10:35 PM,55.4,51.8,88,30.09,10.0,Calm,Calm,-,N/A,,Clear,0,2012-11-05 04:35:00
10:55 PM,55.4,51.8,88,30.08,10.0,Calm,Calm,-,N/A,,Clear,0,2012-11-05 04:55:00